User: anonymous   Login
Location: Aciu?a
(46.2833°N, 22.4500°E)
Time: 00:35:58
(UTC+00:00)
Language:

Cosmos 2278 Rocket - Orbit

View from above orbital plane
View from above orbital plane
View from above satellite
View from above satellite

Ground track
Ground track

The orbit data is extracted from the following two-line orbital elements,

1 23088U 94023B   22026.33856939  .00000143  00000-0  99098-4 0  9994
2 23088  71.0019 347.1721 0001696  19.6541 340.4646 14.14703474433455
Epoch (UTC): 26 January 2022 08:07:32
Eccentricity: 0.0001696
inclination: 71.0019°
perigee height: 842 km
apogee height: 844 km
right ascension of ascending node: 347.1721°
argument of perigee: 19.6541°
revolutions per day: 14.14703474
mean anomaly at epoch: 340.4646°
orbit number at epoch: 43345

The dashed part of the orbit path shows where the satellite is in the earth's shadow,  

DLR